Time,TemperatureF,DewpointF,PressureIn,WindDirection,WindDirectionDegrees,WindSpeedMPH,WindSpeedGustMPH,Humidity,HourlyPrecipIn,Conditions,Clouds,dailyrainin,SoftwareType,DateUTC
2013-05-09 00:02:00,61.3,46.4,30.06,WSW,248,0.0,0.0,58,0.00,,,0.00,WUHU216HW,2013-05-09 07:02:00,
2013-05-09 00:07:00,61.1,46.2,30.06,West,270,0.0,0.0,58,0.00,,,0.00,WUHU216HW,2013-05-09 07:07:00,
2013-05-09 00:12:00,61.1,46.7,30.06,SE,135,0.0,0.0,59,0.00,,,0.00,WUHU216HW,2013-05-09 07:12:00,
2013-05-09 00:17:00,60.9,47.1,30.06,NNW,338,0.0,0.0,60,0.00,,,0.00,WUHU216HW,2013-05-09 07:17:00,
2013-05-09 00:22:00,60.8,46.9,30.05,NNW,338,0.0,0.0,60,0.00,,,0.00,WUHU216HW,2013-05-09 07:22:00,
2013-05-09 00:27:00,60.4,46.9,30.05,NNW,338,0.0,0.0,61,0.00,,,0.00,WUHU216HW,2013-05-09 07:27:00,
2013-05-09 00:32:00,60.4,46.9,30.06,NW,315,0.0,0.0,61,0.00,,,0.00,WUHU216HW,2013-05-09 07:32:00,
2013-05-09 00:37:00,60.2,46.8,30.06,North,0,0.0,0.0,61,0.00,,,0.00,WUHU216HW,2013-05-09 07:37:00,
2013-05-09 00:42:00,60.0,47.0,30.06,NNW,338,0.0,0.0,62,0.00,,,0.00,WUHU216HW,2013-05-09 07:42:00,
2013-05-09 00:47:00,59.9,46.8,30.06,NNW,338,0.0,0.0,62,0.00,,,0.00,WUHU216HW,2013-05-09 07:47:00,
2013-05-09 00:52:00,59.7,47.1,30.07,NNW,338,0.0,0.0,63,0.00,,,0.00,WUHU216HW,2013-05-09 07:52:00,
2013-05-09 00:57:00,59.5,46.9,30.06,NNW,338,0.0,0.0,63,0.00,,,0.00,WUHU216HW,2013-05-09 07:57:00,
2013-05-09 01:02:00,59.7,47.1,30.07,SW,225,0.0,0.0,63,0.00,,,0.00,WUHU216HW,2013-05-09 08:02:00,
2013-05-09 01:07:00,59.3,47.1,30.07,NNW,338,0.0,3.3,64,0.00,,,0.00,WUHU216HW,2013-05-09 08:07:00,
2013-05-09 01:12:00,59.1,47.3,30.07,North,0,4.0,4.0,65,0.00,,,0.00,WUHU216HW,2013-05-09 08:12:00,
2013-05-09 01:17:00,59.1,47.3,30.06,NNW,338,1.3,4.0,65,0.00,,,0.00,WUHU216HW,2013-05-09 08:17:00,
2013-05-09 01:22:00,58.6,46.8,30.06,NNW,338,1.7,4.0,65,0.00,,,0.00,WUHU216HW,2013-05-09 08:22:00,
2013-05-09 01:27:00,58.6,46.8,30.06,North,0,0.0,1.7,65,0.00,,,0.00,WUHU216HW,2013-05-09 08:27:00,
2013-05-09 01:32:00,58.4,46.6,30.06,North,0,1.7,1.7,65,0.00,,,0.00,WUHU216HW,2013-05-09 08:32:00,
2013-05-09 01:37:00,58.1,46.7,30.07,NNE,23,0.0,1.7,66,0.00,,,0.00,WUHU216HW,2013-05-09 08:37:00,
2013-05-09 01:42:00,57.9,46.9,30.07,NNW,338,0.0,0.0,67,0.00,,,0.00,WUHU216HW,2013-05-09 08:42:00,
2013-05-09 01:47:00,57.7,46.8,30.06,NNW,338,0.0,0.0,67,0.00,,,0.00,WUHU216HW,2013-05-09 08:47:00,
2013-05-09 01:52:00,57.5,46.8,30.06,NNW,338,0.0,0.0,67,0.00,,,0.00,WUHU216HW,2013-05-09 08:52:00,
2013-05-09 01:57:00,57.5,46.6,30.06,NNW,338,0.0,0.0,67,0.00,,,0.00,WUHU216HW,2013-05-09 08:57:00,
2013-05-09 02:02:00,57.3,46.4,30.06,NNW,338,0.0,0.0,67,0.00,,,0.00,WUHU216HW,2013-05-09 09:02:00,
2013-05-09 02:07:00,57.3,46.4,30.06,NNW,338,0.0,0.0,67,0.00,,,0.00,WUHU216HW,2013-05-09 09:07:00,
2013-05-09 02:12:00,57.0,46.1,30.05,NNW,338,0.0,0.0,67,0.00,,,0.00,WUHU216HW,2013-05-09 09:12:00,
2013-05-09 02:17:00,56.8,45.9,30.05,North,0,0.0,0.0,67,0.00,,,0.00,WUHU216HW,2013-05-09 09:17:00,
2013-05-09 02:22:00,56.8,45.9,30.05,North,0,0.0,0.0,67,0.00,,,0.00,WUHU216HW,2013-05-09 09:22:00,
2013-05-09 02:27:00,56.6,45.7,30.05,North,0,0.0,0.0,67,0.00,,,0.00,WUHU216HW,2013-05-09 09:27:00,
2013-05-09 02:33:00,56.6,45.7,30.05,North,0,0.0,0.0,67,0.00,,,0.00,WUHU216HW,2013-05-09 09:33:00,
2013-05-09 02:38:00,56.4,45.6,30.05,North,0,0.0,0.0,67,0.00,,,0.00,WUHU216HW,2013-05-09 09:38:00,
2013-05-09 02:43:00,56.3,45.4,30.05,North,0,0.0,0.0,67,0.00,,,0.00,WUHU216HW,2013-05-09 09:43:00,
2013-05-09 02:48:00,56.3,45.4,30.05,North,0,0.0,0.0,67,0.00,,,0.00,WUHU216HW,2013-05-09 09:48:00,
2013-05-09 02:53:00,56.1,45.6,30.05,North,0,0.0,0.0,68,0.00,,,0.00,WUHU216HW,2013-05-09 09:53:00,
2013-05-09 02:58:00,56.1,45.6,30.05,North,0,0.0,0.0,68,0.00,,,0.00,WUHU216HW,2013-05-09 09:58:00,
2013-05-09 03:03:00,55.9,45.5,30.05,North,0,0.0,0.0,68,0.00,,,0.00,WUHU216HW,2013-05-09 10:03:00,
2013-05-09 03:08:00,55.9,45.5,30.05,North,0,0.0,0.0,68,0.00,,,0.00,WUHU216HW,2013-05-09 10:08:00,
2013-05-09 03:13:00,55.9,45.5,30.05,North,0,0.0,0.0,68,0.00,,,0.00,WUHU216HW,2013-05-09 10:13:00,
2013-05-09 03:18:00,55.7,45.7,30.05,North,0,0.0,0.0,69,0.00,,,0.00,WUHU216HW,2013-05-09 10:18:00,
2013-05-09 03:23:00,55.7,45.7,30.05,North,0,0.0,0.0,69,0.00,,,0.00,WUHU216HW,2013-05-09 10:23:00,
2013-05-09 03:28:00,55.5,45.6,30.05,North,0,0.0,0.0,69,0.00,,,0.00,WUHU216HW,2013-05-09 10:28:00,
2013-05-09 03:33:00,55.5,45.6,30.05,North,0,0.0,0.0,69,0.00,,,0.00,WUHU216HW,2013-05-09 10:33:00,
2013-05-09 03:38:00,55.4,45.4,30.05,North,0,0.0,0.0,69,0.00,,,0.00,WUHU216HW,2013-05-09 10:38:00,
2013-05-09 03:43:00,55.2,45.2,30.05,North,0,0.0,0.0,69,0.00,,,0.00,WUHU216HW,2013-05-09 10:43:00,
2013-05-09 03:48:00,55.0,45.0,30.05,North,0,0.0,0.0,69,0.00,,,0.00,WUHU216HW,2013-05-09 10:48:00,
2013-05-09 03:53:00,55.0,45.0,30.05,North,0,0.0,0.0,69,0.00,,,0.00,WUHU216HW,2013-05-09 10:53:00,
2013-05-09 03:58:00,55.0,45.0,30.05,North,0,0.0,0.0,69,0.00,,,0.00,WUHU216HW,2013-05-09 10:58:00,
2013-05-09 04:03:00,54.8,44.9,30.05,North,0,0.0,0.0,69,0.00,,,0.00,WUHU216HW,2013-05-09 11:03:00,
2013-05-09 04:08:00,54.8,44.9,30.05,North,0,0.0,0.0,69,0.00,,,0.00,WUHU216HW,2013-05-09 11:08:00,
2013-05-09 04:13:00,54.6,44.7,30.05,North,0,0.0,0.0,69,0.00,,,0.00,WUHU216HW,2013-05-09 11:13:00,
2013-05-09 04:18:00,54.8,44.9,30.05,North,0,0.0,0.0,69,0.00,,,0.00,WUHU216HW,2013-05-09 11:18:00,
2013-05-09 04:23:00,54.5,44.5,30.05,North,0,0.0,0.0,69,0.00,,,0.00,WUHU216HW,2013-05-09 11:23:00,
2013-05-09 04:28:00,54.5,44.9,30.05,North,0,0.0,0.0,70,0.00,,,0.00,WUHU216HW,2013-05-09 11:28:00,
2013-05-09 04:33:00,54.5,44.9,30.05,North,0,0.0,0.0,70,0.00,,,0.00,WUHU216HW,2013-05-09 11:33:00,
2013-05-09 04:38:00,54.5,45.3,30.05,North,0,0.0,0.0,71,0.00,,,0.00,WUHU216HW,2013-05-09 11:38:00,
2013-05-09 04:43:00,54.3,45.1,30.05,North,0,0.0,0.0,71,0.00,,,0.00,WUHU216HW,2013-05-09 11:43:00,
2013-05-09 04:48:00,54.3,45.1,30.04,North,0,0.0,0.0,71,0.00,,,0.00,WUHU216HW,2013-05-09 11:48:00,
2013-05-09 04:53:00,54.3,45.1,30.05,North,0,0.0,0.0,71,0.00,,,0.00,WUHU216HW,2013-05-09 11:53:00,
2013-05-09 04:58:00,54.3,45.1,30.05,North,0,0.0,0.0,71,0.00,,,0.00,WUHU216HW,2013-05-09 11:58:00,
2013-05-09 05:03:00,54.3,45.1,30.05,North,0,0.0,0.0,71,0.00,,,0.00,WUHU216HW,2013-05-09 12:03:00,
2013-05-09 05:08:00,54.1,45.3,30.05,North,0,0.0,0.0,72,0.00,,,0.00,WUHU216HW,2013-05-09 12:08:00,
2013-05-09 05:13:00,54.3,45.4,30.06,North,0,0.0,0.0,72,0.00,,,0.00,WUHU216HW,2013-05-09 12:13:00,
2013-05-09 05:18:00,54.1,45.3,30.06,North,0,0.0,0.0,72,0.00,,,0.00,WUHU216HW,2013-05-09 12:18:00,
2013-05-09 05:23:00,54.3,45.4,30.06,West,270,0.0,0.0,73,0.00,,,0.00,WUHU216HW,2013-05-09 12:23:00,
2013-05-09 05:28:00,53.9,45.4,30.06,West,270,0.0,0.0,73,0.00,,,0.00,WUHU216HW,2013-05-09 12:28:00,
2013-05-09 05:33:00,53.9,45.4,30.06,West,270,0.0,0.0,73,0.00,,,0.00,WUHU216HW,2013-05-09 12:33:00,
2013-05-09 05:38:00,53.9,45.4,30.06,West,270,0.0,0.0,73,0.00,,,0.00,WUHU216HW,2013-05-09 12:38:00,
2013-05-09 05:43:00,53.9,45.8,30.06,WNW,293,0.0,0.0,74,0.00,,,0.00,WUHU216HW,2013-05-09 12:43:00,
2013-05-09 05:48:00,53.9,45.8,30.06,WNW,293,0.0,0.0,74,0.00,,,0.00,WUHU216HW,2013-05-09 12:48:00,
2013-05-09 05:53:00,53.9,45.8,30.06,WNW,293,0.0,0.0,74,0.00,,,0.00,WUHU216HW,2013-05-09 12:53:00,
2013-05-09 05:58:00,53.7,45.3,30.06,WNW,293,0.0,0.0,73,0.00,,,0.00,WUHU216HW,2013-05-09 12:58:00,
2013-05-09 06:03:00,53.7,45.3,30.06,WNW,293,0.0,0.0,73,0.00,,,0.00,WUHU216HW,2013-05-09 13:03:00,
2013-05-09 06:08:00,53.7,45.3,30.07,WNW,293,0.0,0.0,73,0.00,,,0.00,WUHU216HW,2013-05-09 13:08:00,
2013-05-09 06:13:00,53.6,45.1,30.06,WNW,293,0.0,0.0,73,0.00,,,0.00,WUHU216HW,2013-05-09 13:13:00,
2013-05-09 06:18:00,53.6,45.1,30.06,WNW,293,0.0,0.0,73,0.00,,,0.00,WUHU216HW,2013-05-09 13:18:00,
2013-05-09 06:23:00,53.6,45.1,30.06,WNW,293,0.0,0.0,73,0.00,,,0.00,WUHU216HW,2013-05-09 13:23:00,
2013-05-09 06:28:00,53.7,45.3,30.06,WNW,293,0.0,0.0,73,0.00,,,0.00,WUHU216HW,2013-05-09 13:28:00,
2013-05-09 06:33:00,53.7,45.3,30.06,WSW,248,0.0,0.0,73,0.00,,,0.00,WUHU216HW,2013-05-09 13:33:00,
2013-05-09 06:38:00,53.7,45.3,30.07,SSW,203,0.0,0.0,73,0.00,,,0.00,WUHU216HW,2013-05-09 13:38:00,
2013-05-09 06:43:00,53.7,45.3,30.07,SSW,203,0.0,0.0,73,0.00,,,0.00,WUHU216HW,2013-05-09 13:43:00,
2013-05-09 06:48:00,53.7,45.6,30.07,SSW,203,0.0,0.0,74,0.00,,,0.00,WUHU216HW,2013-05-09 13:48:00,
2013-05-09 06:53:00,53.9,45.8,30.07,South,180,0.0,0.0,74,0.00,,,0.00,WUHU216HW,2013-05-09 13:53:00,
2013-05-09 06:58:00,54.3,46.1,30.07,South,180,0.0,0.0,74,0.00,,,0.00,WUHU216HW,2013-05-09 13:58:00,
2013-05-09 07:03:00,54.3,46.5,30.07,South,180,0.0,0.0,75,0.00,,,0.00,WUHU216HW,2013-05-09 14:03:00,
2013-05-09 07:08:00,54.6,46.8,30.07,SSE,158,0.0,0.0,75,0.00,,,0.00,WUHU216HW,2013-05-09 14:08:00,
2013-05-09 07:13:00,54.8,47.3,30.07,SSE,158,0.0,0.0,76,0.00,,,0.00,WUHU216HW,2013-05-09 14:13:00,
2013-05-09 07:18:00,55.2,47.7,30.07,South,180,0.0,0.0,76,0.00,,,0.00,WUHU216HW,2013-05-09 14:18:00,
2013-05-09 07:23:00,55.7,48.2,30.07,South,180,0.0,0.0,76,0.00,,,0.00,WUHU216HW,2013-05-09 14:23:00,
2013-05-09 07:28:00,56.1,48.9,30.07,SSE,158,0.0,0.0,77,0.00,,,0.00,WUHU216HW,2013-05-09 14:28:00,
2013-05-09 07:33:00,56.6,49.1,30.08,South,180,0.0,0.0,76,0.00,,,0.00,WUHU216HW,2013-05-09 14:33:00,
2013-05-09 07:38:00,57.3,49.8,30.08,SW,225,0.0,0.0,76,0.00,,,0.00,WUHU216HW,2013-05-09 14:38:00,
2013-05-09 07:43:00,57.9,50.3,30.08,North,0,0.0,0.0,76,0.00,,,0.00,WUHU216HW,2013-05-09 14:43:00,
2013-05-09 07:48:00,57.9,50.0,30.08,SSW,203,0.0,0.0,75,0.00,,,0.00,WUHU216HW,2013-05-09 14:48:00,
2013-05-09 07:53:00,59.3,51.4,30.08,NW,315,0.0,0.0,75,0.00,,,0.00,WUHU216HW,2013-05-09 14:53:00,
2013-05-09 07:59:00,59.9,50.9,30.08,NNE,23,0.0,0.0,72,0.00,,,0.00,WUHU216HW,2013-05-09 14:59:00,
2013-05-09 08:04:00,60.4,50.9,30.07,NNW,338,0.0,0.0,71,0.00,,,0.00,WUHU216HW,2013-05-09 15:04:00,
2013-05-09 08:09:00,60.6,50.9,30.08,North,0,0.0,0.0,70,0.00,,,0.00,WUHU216HW,2013-05-09 15:09:00,
2013-05-09 08:14:00,60.8,51.0,30.08,North,0,0.0,0.0,70,0.00,,,0.00,WUHU216HW,2013-05-09 15:14:00,
2013-05-09 08:19:00,60.8,50.6,30.08,NW,315,1.5,1.5,69,0.00,,,0.00,WUHU216HW,2013-05-09 15:19:00,
2013-05-09 08:24:00,60.9,50.4,30.08,North,0,0.0,1.5,68,0.00,,,0.00,WUHU216HW,2013-05-09 15:24:00,
2013-05-09 08:29:00,60.9,50.4,30.07,North,0,0.0,1.5,68,0.00,,,0.00,WUHU216HW,2013-05-09 15:29:00,
2013-05-09 08:34:00,61.1,50.5,30.07,NNE,23,0.0,1.3,68,0.00,,,0.00,WUHU216HW,2013-05-09 15:34:00,
2013-05-09 08:39:00,61.1,50.1,30.08,NNW,338,0.0,1.3,67,0.00,,,0.00,WUHU216HW,2013-05-09 15:39:00,
2013-05-09 08:44:00,61.3,50.3,30.08,NNE,23,0.0,0.0,67,0.00,,,0.00,WUHU216HW,2013-05-09 15:44:00,
2013-05-09 08:49:00,61.7,50.6,30.07,North,0,1.3,1.3,67,0.00,,,0.00,WUHU216HW,2013-05-09 15:49:00,
2013-05-09 08:54:00,61.8,50.3,30.07,North,0,0.8,1.7,66,0.00,,,0.00,WUHU216HW,2013-05-09 15:54:00,
2013-05-09 08:59:00,62.0,50.1,30.07,North,0,2.2,2.2,65,0.00,,,0.00,WUHU216HW,2013-05-09 15:59:00,
2013-05-09 09:04:00,62.2,50.3,30.07,North,0,0.0,4.0,65,0.00,,,0.00,WUHU216HW,2013-05-09 16:04:00,
2013-05-09 09:09:00,62.7,50.7,30.07,North,0,0.0,4.0,65,0.00,,,0.00,WUHU216HW,2013-05-09 16:09:00,
2013-05-09 09:14:00,62.9,50.5,30.07,NW,315,0.0,0.0,64,0.00,,,0.00,WUHU216HW,2013-05-09 16:14:00,
2013-05-09 09:19:00,63.3,50.4,30.07,NW,315,0.0,2.2,63,0.00,,,0.00,WUHU216HW,2013-05-09 16:19:00,
2013-05-09 09:24:00,63.6,50.7,30.08,NW,315,0.0,2.2,63,0.00,,,0.00,WUHU216HW,2013-05-09 16:24:00,
2013-05-09 09:29:00,64.0,50.7,30.07,NW,315,0.0,4.6,62,0.00,,,0.00,WUHU216HW,2013-05-09 16:29:00,
2013-05-09 09:34:00,64.5,51.2,30.08,NW,315,2.4,5.5,62,0.00,,,0.00,WUHU216HW,2013-05-09 16:34:00,
2013-05-09 09:39:00,65.1,51.7,30.08,NW,315,2.4,5.5,62,0.00,,,0.00,WUHU216HW,2013-05-09 16:39:00,
2013-05-09 09:44:00,65.3,51.9,30.07,North,0,0.0,2.4,62,0.00,,,0.00,WUHU216HW,2013-05-09 16:44:00,
2013-05-09 09:49:00,65.6,51.4,30.07,North,0,2.9,3.1,60,0.00,,,0.00,WUHU216HW,2013-05-09 16:49:00,
2013-05-09 09:54:00,65.8,51.1,30.07,North,0,3.1,4.2,59,0.00,,,0.00,WUHU216HW,2013-05-09 16:54:00,
2013-05-09 09:59:00,66.3,51.6,30.07,North,0,0.0,4.2,59,0.00,,,0.00,WUHU216HW,2013-05-09 16:59:00,
2013-05-09 10:04:00,66.3,51.6,30.07,NNW,338,2.0,3.1,59,0.00,,,0.00,WUHU216HW,2013-05-09 17:04:00,
2013-05-09 10:09:00,66.9,52.1,30.07,North,0,3.1,3.1,59,0.00,,,0.00,WUHU216HW,2013-05-09 17:09:00,
2013-05-09 10:14:00,67.6,51.8,30.07,NNW,338,0.0,3.1,57,0.00,,,0.00,WUHU216HW,2013-05-09 17:14:00,
2013-05-09 10:19:00,68.1,51.8,30.07,NNW,338,2.0,5.3,56,0.00,,,0.00,WUHU216HW,2013-05-09 17:19:00,
2013-05-09 10:24:00,68.9,52.5,30.07,NNW,338,1.3,5.3,56,0.00,,,0.00,WUHU216HW,2013-05-09 17:24:00,
2013-05-09 10:29:00,69.4,52.0,30.07,SW,225,0.0,1.3,54,0.00,,,0.00,WUHU216HW,2013-05-09 17:29:00,
2013-05-09 10:34:00,69.9,52.5,30.07,NNE,23,0.0,1.3,54,0.00,,,0.00,WUHU216HW,2013-05-09 17:34:00,
2013-05-09 10:39:00,70.3,51.8,30.07,West,270,0.0,4.2,52,0.00,,,0.00,WUHU216HW,2013-05-09 17:39:00,
2013-05-09 10:44:00,70.5,52.0,30.07,NNW,338,4.9,4.9,52,0.00,,,0.00,WUHU216HW,2013-05-09 17:44:00,
2013-05-09 10:49:00,71.0,51.9,30.07,North,0,1.5,4.9,51,0.00,,,0.00,WUHU216HW,2013-05-09 17:49:00,
2013-05-09 10:54:00,71.7,52.6,30.07,SE,135,0.0,4.9,51,0.00,,,0.00,WUHU216HW,2013-05-09 17:54:00,
2013-05-09 10:59:00,72.5,53.2,30.07,North,0,2.9,2.9,51,0.00,,,0.00,WUHU216HW,2013-05-09 17:59:00,
2013-05-09 11:04:00,73.5,53.7,30.07,SE,135,0.0,2.9,50,0.00,,,0.00,WUHU216HW,2013-05-09 18:04:00,
2013-05-09 11:09:00,73.9,52.3,30.07,North,0,0.0,2.6,47,0.00,,,0.00,WUHU216HW,2013-05-09 18:09:00,
2013-05-09 11:14:00,74.1,52.5,30.07,NNW,338,0.0,2.6,47,0.00,,,0.00,WUHU216HW,2013-05-09 18:14:00,
2013-05-09 11:19:00,73.9,52.3,30.07,North,0,2.6,4.0,47,0.00,,,0.00,WUHU216HW,2013-05-09 18:19:00,
2013-05-09 11:24:00,74.1,51.9,30.07,NNW,338,0.0,5.3,46,0.00,,,0.00,WUHU216HW,2013-05-09 18:24:00,
2013-05-09 11:29:00,74.3,52.6,30.07,NNW,338,6.0,6.0,47,0.00,,,0.00,WUHU216HW,2013-05-09 18:29:00,
2013-05-09 11:34:00,74.6,51.8,30.07,NNW,338,0.0,6.0,45,0.00,,,0.00,WUHU216HW,2013-05-09 18:34:00,
2013-05-09 11:39:00,75.5,53.2,30.07,NNW,338,0.0,6.0,46,0.00,,,0.00,WUHU216HW,2013-05-09 18:39:00,
2013-05-09 11:44:00,76.1,53.1,30.07,NNW,338,3.3,3.3,45,0.00,,,0.00,WUHU216HW,2013-05-09 18:44:00,
2013-05-09 11:49:00,76.2,52.0,30.07,WNW,293,0.0,3.3,43,0.00,,,0.00,WUHU216HW,2013-05-09 18:49:00,
2013-05-09 11:54:00,76.6,51.8,30.07,NNW,338,4.0,4.0,42,0.00,,,0.00,WUHU216HW,2013-05-09 18:54:00,
2013-05-09 11:59:00,76.4,51.6,30.06,South,180,0.0,4.0,42,0.00,,,0.00,WUHU216HW,2013-05-09 18:59:00,
2013-05-09 12:04:00,77.1,52.2,30.06,North,0,4.6,4.6,42,0.00,,,0.00,WUHU216HW,2013-05-09 19:04:00,
2013-05-09 12:09:00,77.3,52.4,30.06,East,90,0.0,4.6,42,0.00,,,0.00,WUHU216HW,2013-05-09 19:09:00,
2013-05-09 12:14:00,77.5,51.9,30.06,SSE,158,3.5,4.6,41,0.00,,,0.00,WUHU216HW,2013-05-09 19:14:00,
2013-05-09 12:19:00,77.9,51.7,30.06,NNW,338,0.0,3.8,40,0.00,,,0.00,WUHU216HW,2013-05-09 19:19:00,
2013-05-09 12:24:00,78.0,51.8,30.06,SSE,158,0.0,3.8,40,0.00,,,0.00,WUHU216HW,2013-05-09 19:24:00,
2013-05-09 12:29:00,78.2,51.2,30.06,NW,315,0.0,0.0,39,0.00,,,0.00,WUHU216HW,2013-05-09 19:29:00,
2013-05-09 12:34:00,78.6,52.3,30.05,North,0,0.0,0.0,40,0.00,,,0.00,WUHU216HW,2013-05-09 19:34:00,
2013-05-09 12:39:00,79.3,53.0,30.05,SSE,158,2.6,2.6,40,0.00,,,0.00,WUHU216HW,2013-05-09 19:39:00,
2013-05-09 12:44:00,80.0,52.8,30.05,North,0,3.5,4.0,39,0.00,,,0.00,WUHU216HW,2013-05-09 19:44:00,
2013-05-09 12:49:00,80.9,52.8,30.05,SSE,158,0.8,4.0,38,0.00,,,0.00,WUHU216HW,2013-05-09 19:49:00,
2013-05-09 12:54:00,81.3,53.2,30.05,SE,135,1.1,4.2,38,0.00,,,0.00,WUHU216HW,2013-05-09 19:54:00,
2013-05-09 12:59:00,81.5,52.5,30.05,NW,315,2.9,4.2,37,0.00,,,0.00,WUHU216HW,2013-05-09 19:59:00,
2013-05-09 13:04:00,81.8,52.1,30.05,NNW,338,0.0,2.9,36,0.00,,,0.00,WUHU216HW,2013-05-09 20:04:00,
2013-05-09 13:09:00,82.2,53.2,30.05,SSE,158,0.0,2.9,37,0.00,,,0.00,WUHU216HW,2013-05-09 20:09:00,
2013-05-09 13:14:00,82.5,52.7,30.05,SSE,158,1.7,2.6,36,0.00,,,0.00,WUHU216HW,2013-05-09 20:14:00,
2013-05-09 13:19:00,82.7,52.1,30.04,NE,45,3.1,4.6,35,0.00,,,0.00,WUHU216HW,2013-05-09 20:19:00,
2013-05-09 13:24:00,82.7,52.1,30.04,ESE,113,1.5,4.6,35,0.00,,,0.00,WUHU216HW,2013-05-09 20:24:00,
2013-05-09 13:29:00,82.7,52.1,30.04,NNE,23,4.0,6.2,35,0.00,,,0.00,WUHU216HW,2013-05-09 20:29:00,
2013-05-09 13:34:00,82.7,52.1,30.04,NNW,338,4.6,6.2,35,0.00,,,0.00,WUHU216HW,2013-05-09 20:34:00,
2013-05-09 13:39:00,83.3,51.8,30.04,NNW,338,1.5,4.6,34,0.00,,,0.00,WUHU216HW,2013-05-09 20:39:00,
2013-05-09 13:45:00,83.8,53.0,30.03,SE,135,2.9,4.6,35,0.00,,,0.00,WUHU216HW,2013-05-09 20:45:00,
2013-05-09 13:50:00,84.7,53.9,30.04,WNW,293,1.7,2.9,35,0.00,,,0.00,WUHU216HW,2013-05-09 20:50:00,
2013-05-09 13:55:00,85.1,53.4,30.03,SE,135,0.0,1.7,34,0.00,,,0.00,WUHU216HW,2013-05-09 20:55:00,
2013-05-09 14:00:00,85.6,53.1,30.03,SE,135,0.0,1.7,33,0.00,,,0.00,WUHU216HW,2013-05-09 21:00:00,
2013-05-09 14:05:00,86.1,53.6,30.03,NE,45,0.0,2.6,33,0.00,,,0.00,WUHU216HW,2013-05-09 21:05:00,
2013-05-09 14:10:00,86.7,53.2,30.03,NNW,338,0.0,2.6,32,0.00,,,0.00,WUHU216HW,2013-05-09 21:10:00,
2013-05-09 14:15:00,86.9,52.5,30.03,NNW,338,0.0,2.4,31,0.00,,,0.00,WUHU216HW,2013-05-09 21:15:00,
2013-05-09 14:20:00,87.0,51.9,30.02,West,270,0.0,2.4,30,0.00,,,0.00,WUHU216HW,2013-05-09 21:20:00,
2013-05-09 14:25:00,87.2,52.0,30.03,North,0,4.2,4.2,30,0.00,,,0.00,WUHU216HW,2013-05-09 21:25:00,
2013-05-09 14:30:00,87.2,52.0,30.03,SE,135,0.0,4.2,30,0.00,,,0.00,WUHU216HW,2013-05-09 21:30:00,
2013-05-09 14:35:00,87.8,52.5,30.02,SE,135,2.9,2.9,30,0.00,,,0.00,WUHU216HW,2013-05-09 21:35:00,
2013-05-09 14:40:00,88.1,52.8,30.02,SE,135,0.0,2.9,30,0.00,,,0.00,WUHU216HW,2013-05-09 21:40:00,
2013-05-09 14:45:00,88.7,53.3,30.02,SSW,203,2.2,3.1,29,0.00,,,0.00,WUHU216HW,2013-05-09 21:45:00,
2013-05-09 14:50:00,89.6,51.9,30.02,SSE,158,4.9,4.9,28,0.00,,,0.00,WUHU216HW,2013-05-09 21:50:00,
2013-05-09 14:55:00,89.7,52.1,30.02,SSE,158,4.9,4.9,28,0.00,,,0.00,WUHU216HW,2013-05-09 21:55:00,
2013-05-09 15:00:00,89.9,52.2,30.02,NW,315,3.3,4.9,28,0.00,,,0.00,WUHU216HW,2013-05-09 22:00:00,
2013-05-09 15:05:00,89.9,51.2,30.02,NNE,23,4.4,4.4,27,0.00,,,0.00,WUHU216HW,2013-05-09 22:05:00,
2013-05-09 15:10:00,89.9,51.2,30.01,SSE,158,3.1,4.4,27,0.00,,,0.00,WUHU216HW,2013-05-09 22:10:00,
2013-05-09 15:15:00,90.3,52.6,30.00,West,270,0.0,3.1,28,0.00,,,0.00,WUHU216HW,2013-05-09 22:15:00,
2013-05-09 15:20:00,90.5,52.7,30.00,SE,135,0.8,3.1,28,0.00,,,0.00,WUHU216HW,2013-05-09 22:20:00,
2013-05-09 15:25:00,90.8,50.9,30.00,North,0,0.0,0.8,26,0.00,,,0.00,WUHU216HW,2013-05-09 22:25:00,
2013-05-09 15:30:00,90.8,50.9,30.00,NNE,23,1.5,1.5,26,0.00,,,0.00,WUHU216HW,2013-05-09 22:30:00,
2013-05-09 15:35:00,90.5,49.4,30.00,NNW,338,1.5,5.3,25,0.00,,,0.00,WUHU216HW,2013-05-09 22:35:00,
2013-05-09 15:40:00,89.9,51.2,30.00,NNW,338,6.0,6.0,27,0.00,,,0.00,WUHU216HW,2013-05-09 22:40:00,
2013-05-09 15:45:00,89.0,50.4,30.00,NNW,338,0.0,6.0,27,0.00,,,0.00,WUHU216HW,2013-05-09 22:45:00,
2013-05-09 15:50:00,89.0,50.4,29.99,NNW,338,0.8,6.0,27,0.00,,,0.00,WUHU216HW,2013-05-09 22:50:00,
2013-05-09 15:55:00,89.0,50.4,29.99,North,0,3.1,3.1,27,0.00,,,0.00,WUHU216HW,2013-05-09 22:55:00,
2013-05-09 16:00:00,89.0,50.4,29.99,South,180,4.9,4.9,27,0.00,,,0.00,WUHU216HW,2013-05-09 23:00:00,
2013-05-09 16:05:00,89.4,50.7,29.99,North,0,0.6,6.0,27,0.00,,,0.00,WUHU216HW,2013-05-09 23:05:00,
2013-05-09 16:10:00,89.9,51.2,29.99,SE,135,0.4,6.0,27,0.00,,,0.00,WUHU216HW,2013-05-09 23:10:00,
2013-05-09 16:15:00,90.3,51.5,29.98,West,270,2.2,2.2,27,0.00,,,0.00,WUHU216HW,2013-05-09 23:15:00,
2013-05-09 16:20:00,90.5,50.5,29.98,NW,315,4.0,4.0,26,0.00,,,0.00,WUHU216HW,2013-05-09 23:20:00,
2013-05-09 16:25:00,90.3,49.3,29.99,East,90,0.0,4.0,25,0.00,,,0.00,WUHU216HW,2013-05-09 23:25:00,
2013-05-09 16:30:00,90.3,50.4,29.98,NNW,338,0.0,4.0,26,0.00,,,0.00,WUHU216HW,2013-05-09 23:30:00,
2013-05-09 16:35:00,90.5,50.5,29.99,SE,135,2.4,3.5,26,0.00,,,0.00,WUHU216HW,2013-05-09 23:35:00,
2013-05-09 16:40:00,90.5,49.4,29.98,NNW,338,0.6,3.5,25,0.00,,,0.00,WUHU216HW,2013-05-09 23:40:00,
2013-05-09 16:45:00,90.3,49.3,29.98,North,0,5.5,5.5,25,0.00,,,0.00,WUHU216HW,2013-05-09 23:45:00,
2013-05-09 16:50:00,89.6,49.8,29.98,NNW,338,0.0,5.5,26,0.00,,,0.00,WUHU216HW,2013-05-09 23:50:00,
2013-05-09 16:55:00,89.4,50.7,29.98,SE,135,0.0,5.5,27,0.00,,,0.00,WUHU216HW,2013-05-09 23:55:00,
2013-05-09 17:00:00,89.4,50.7,29.98,SE,135,0.0,1.1,27,0.00,,,0.00,WUHU216HW,2013-05-10 00:00:00,
2013-05-09 17:05:00,89.2,49.4,29.99,SE,135,1.7,1.7,26,0.00,,,0.00,WUHU216HW,2013-05-10 00:05:00,
2013-05-09 17:10:00,89.0,50.4,29.98,SE,135,6.2,6.2,27,0.00,,,0.00,WUHU216HW,2013-05-10 00:10:00,
2013-05-09 17:15:00,88.7,50.1,29.98,WNW,293,0.0,6.2,27,0.00,,,0.00,WUHU216HW,2013-05-10 00:15:00,
2013-05-09 17:20:00,88.1,49.6,29.99,NNW,338,2.4,6.2,27,0.00,,,0.00,WUHU216HW,2013-05-10 00:20:00,
2013-05-09 17:25:00,87.4,49.0,29.98,North,0,0.0,2.9,27,0.00,,,0.00,WUHU216HW,2013-05-10 00:25:00,
2013-05-09 17:30:00,87.2,48.8,29.98,SE,135,2.4,2.9,27,0.00,,,0.00,WUHU216HW,2013-05-10 00:30:00,
2013-05-09 17:35:00,86.7,48.4,29.99,ESE,113,0.0,2.4,27,0.00,,,0.00,WUHU216HW,2013-05-10 00:35:00,
2013-05-09 17:40:00,86.5,49.3,29.98,NNW,338,0.0,2.4,28,0.00,,,0.00,WUHU216HW,2013-05-10 00:40:00,
2013-05-09 17:45:00,86.1,50.1,29.98,ESE,113,0.0,1.3,29,0.00,,,0.00,WUHU216HW,2013-05-10 00:45:00,
2013-05-09 17:50:00,86.1,50.1,29.98,South,180,0.0,0.0,29,0.00,,,0.00,WUHU216HW,2013-05-10 00:50:00,
2013-05-09 17:55:00,85.6,49.6,29.98,SSE,158,0.0,0.0,29,0.00,,,0.00,WUHU216HW,2013-05-10 00:55:00,
2013-05-09 18:00:00,85.4,49.5,29.98,SE,135,0.0,2.6,29,0.00,,,0.00,WUHU216HW,2013-05-10 01:00:00,
2013-05-09 18:05:00,85.2,50.4,29.98,SE,135,0.0,4.0,30,0.00,,,0.00,WUHU216HW,2013-05-10 01:05:00,
2013-05-09 18:10:00,85.1,50.2,29.97,SE,135,0.0,4.0,30,0.00,,,0.00,WUHU216HW,2013-05-10 01:10:00,
2013-05-09 18:15:00,85.1,50.2,29.98,East,90,0.0,0.0,30,0.00,,,0.00,WUHU216HW,2013-05-10 01:15:00,
2013-05-09 18:20:00,84.7,49.9,29.98,NNE,23,0.0,0.0,30,0.00,,,0.00,WUHU216HW,2013-05-10 01:20:00,
2013-05-09 18:25:00,84.5,49.7,29.98,NNE,23,0.0,0.0,30,0.00,,,0.00,WUHU216HW,2013-05-10 01:25:00,
2013-05-09 18:30:00,84.3,50.4,29.97,NNE,23,0.0,0.0,31,0.00,,,0.00,WUHU216HW,2013-05-10 01:30:00,
2013-05-09 18:35:00,84.0,50.0,29.97,NNE,23,1.3,1.3,31,0.00,,,0.00,WUHU216HW,2013-05-10 01:35:00,
2013-05-09 18:40:00,83.8,50.7,29.98,NNE,23,0.0,1.3,32,0.00,,,0.00,WUHU216HW,2013-05-10 01:40:00,
2013-05-09 18:45:00,83.4,51.0,29.98,NNW,338,0.0,3.5,33,0.00,,,0.00,WUHU216HW,2013-05-10 01:45:00,
2013-05-09 18:50:00,82.9,50.7,29.98,NNE,23,0.0,3.5,33,0.00,,,0.00,WUHU216HW,2013-05-10 01:50:00,
2013-05-09 18:55:00,82.2,50.8,29.98,NNE,23,2.6,2.6,34,0.00,,,0.00,WUHU216HW,2013-05-10 01:55:00,
2013-05-09 19:01:00,82.0,50.7,29.98,NNW,338,0.0,2.6,34,0.00,,,0.00,WUHU216HW,2013-05-10 02:01:00,
2013-05-09 19:06:00,81.3,50.8,29.98,NNW,338,0.8,0.8,35,0.00,,,0.00,WUHU216HW,2013-05-10 02:06:00,
2013-05-09 19:11:00,80.9,51.3,29.98,NW,315,0.0,0.8,36,0.00,,,0.00,WUHU216HW,2013-05-10 02:11:00,
2013-05-09 19:16:00,80.6,50.7,29.99,North,0,0.0,2.9,36,0.00,,,0.00,WUHU216HW,2013-05-10 02:16:00,
2013-05-09 19:21:00,80.0,51.3,29.98,North,0,0.0,2.9,37,0.00,,,0.00,WUHU216HW,2013-05-10 02:21:00,
2013-05-09 19:26:00,79.5,50.8,29.99,North,0,0.0,0.0,37,0.00,,,0.00,WUHU216HW,2013-05-10 02:26:00,
2013-05-09 19:31:00,79.3,50.6,29.99,North,0,0.0,1.3,37,0.00,,,0.00,WUHU216HW,2013-05-10 02:31:00,
2013-05-09 19:36:00,78.9,50.3,29.99,North,0,3.3,3.3,37,0.00,,,0.00,WUHU216HW,2013-05-10 02:36:00,
2013-05-09 19:41:00,78.4,49.8,29.99,North,0,1.7,3.3,37,0.00,,,0.00,WUHU216HW,2013-05-10 02:41:00,
2013-05-09 19:46:00,78.0,49.5,29.99,NNW,338,3.1,3.3,37,0.00,,,0.00,WUHU216HW,2013-05-10 02:46:00,
2013-05-09 19:51:00,77.9,50.1,29.99,North,0,0.0,3.1,38,0.00,,,0.00,WUHU216HW,2013-05-10 02:51:00,
2013-05-09 19:56:00,77.3,50.4,29.99,North,0,4.0,4.0,39,0.00,,,0.00,WUHU216HW,2013-05-10 02:56:00,
2013-05-09 20:01:00,76.8,49.9,29.99,NNW,338,1.1,4.0,39,0.00,,,0.00,WUHU216HW,2013-05-10 03:01:00,
2013-05-09 20:06:00,76.4,50.4,29.99,NNW,338,2.0,3.1,40,0.00,,,0.00,WUHU216HW,2013-05-10 03:06:00,
2013-05-09 20:11:00,75.9,50.5,29.99,NNW,338,0.0,2.0,41,0.00,,,0.00,WUHU216HW,2013-05-10 03:11:00,
2013-05-09 20:16:00,75.5,50.2,30.00,NNW,338,1.3,2.0,41,0.00,,,0.00,WUHU216HW,2013-05-10 03:16:00,
2013-05-09 20:21:00,75.3,50.0,30.01,NNW,338,0.0,1.3,41,0.00,,,0.00,WUHU216HW,2013-05-10 03:21:00,
2013-05-09 20:26:00,74.6,49.3,30.01,NNW,338,0.0,0.6,41,0.00,,,0.00,WUHU216HW,2013-05-10 03:26:00,
2013-05-09 20:31:00,74.4,49.8,30.01,NNW,338,0.0,0.0,42,0.00,,,0.00,WUHU216HW,2013-05-10 03:31:00,
2013-05-09 20:36:00,74.1,49.6,30.01,North,0,1.7,2.0,42,0.00,,,0.00,WUHU216HW,2013-05-10 03:36:00,
2013-05-09 20:41:00,73.7,49.7,30.02,NNE,23,0.0,2.0,43,0.00,,,0.00,WUHU216HW,2013-05-10 03:41:00,
2013-05-09 20:46:00,73.4,49.4,30.02,NNE,23,0.0,1.7,43,0.00,,,0.00,WUHU216HW,2013-05-10 03:46:00,
2013-05-09 20:51:00,73.4,49.4,30.02,NNW,338,0.0,0.6,44,0.00,,,0.00,WUHU216HW,2013-05-10 03:51:00,
2013-05-09 20:56:00,72.8,49.5,30.03,NNW,338,0.0,0.6,44,0.00,,,0.00,WUHU216HW,2013-05-10 03:56:00,
2013-05-09 21:01:00,72.5,49.2,30.03,North,0,3.3,3.3,44,0.00,,,0.00,WUHU216HW,2013-05-10 04:01:00,
2013-05-09 21:06:00,71.9,49.3,30.03,NNW,338,0.0,3.3,45,0.00,,,0.00,WUHU216HW,2013-05-10 04:06:00,
2013-05-09 21:11:00,71.7,49.1,30.03,NW,315,0.0,3.3,45,0.00,,,0.00,WUHU216HW,2013-05-10 04:11:00,
2013-05-09 21:16:00,71.4,48.8,30.03,NW,315,0.0,0.0,45,0.00,,,0.00,WUHU216HW,2013-05-10 04:16:00,
2013-05-09 21:21:00,71.0,49.1,30.04,North,0,0.0,0.0,46,0.00,,,0.00,WUHU216HW,2013-05-10 04:21:00,
2013-05-09 21:26:00,70.8,48.9,30.04,NNW,338,1.1,1.1,46,0.00,,,0.00,WUHU216HW,2013-05-10 04:26:00,
2013-05-09 21:31:00,70.7,48.7,30.04,North,0,0.0,1.1,46,0.00,,,0.00,WUHU216HW,2013-05-10 04:31:00,
2013-05-09 21:36:00,70.3,49.0,30.05,NNW,338,0.0,1.1,47,0.00,,,0.00,WUHU216HW,2013-05-10 04:36:00,
2013-05-09 21:41:00,70.1,48.9,30.05,NNW,338,0.0,0.0,47,0.00,,,0.00,WUHU216HW,2013-05-10 04:41:00,
2013-05-09 21:46:00,70.1,48.9,30.05,NNW,338,0.0,0.0,47,0.00,,,0.00,WUHU216HW,2013-05-10 04:46:00,
2013-05-09 21:51:00,69.6,49.0,30.05,NNW,338,0.0,1.5,48,0.00,,,0.00,WUHU216HW,2013-05-10 04:51:00,
2013-05-09 21:56:00,69.2,48.6,30.05,NNW,338,4.0,4.0,48,0.00,,,0.00,WUHU216HW,2013-05-10 04:56:00,
2013-05-09 22:01:00,69.2,48.6,30.06,North,0,0.0,4.0,48,0.00,,,0.00,WUHU216HW,2013-05-10 05:01:00,
2013-05-09 22:06:00,68.9,48.9,30.06,North,0,0.0,0.0,49,0.00,,,0.00,WUHU216HW,2013-05-10 05:06:00,
2013-05-09 22:11:00,68.7,49.3,30.06,North,0,0.0,0.0,50,0.00,,,0.00,WUHU216HW,2013-05-10 05:11:00,
2013-05-09 22:16:00,68.3,49.0,30.07,North,0,0.0,0.0,50,0.00,,,0.00,WUHU216HW,2013-05-10 05:16:00,
2013-05-09 22:21:00,68.1,49.3,30.07,NNW,338,0.0,0.0,51,0.00,,,0.00,WUHU216HW,2013-05-10 05:21:00,
2013-05-09 22:26:00,68.0,49.2,30.07,North,0,0.0,0.0,51,0.00,,,0.00,WUHU216HW,2013-05-10 05:26:00,
2013-05-09 22:31:00,67.6,48.9,30.07,NNW,338,0.0,0.0,51,0.00,,,0.00,WUHU216HW,2013-05-10 05:31:00,
2013-05-09 22:36:00,67.1,48.4,30.07,West,270,0.0,0.0,51,0.00,,,0.00,WUHU216HW,2013-05-10 05:36:00,
2013-05-09 22:41:00,66.9,49.2,30.06,WSW,248,0.0,0.0,53,0.00,,,0.00,WUHU216HW,2013-05-10 05:41:00,
2013-05-09 22:46:00,66.5,49.0,30.07,SSW,203,0.0,0.0,53,0.00,,,0.00,WUHU216HW,2013-05-10 05:46:00,
2013-05-09 22:51:00,66.3,48.7,30.07,North,0,2.2,2.2,53,0.00,,,0.00,WUHU216HW,2013-05-10 05:51:00,
2013-05-09 22:56:00,66.0,48.3,30.07,WNW,293,0.0,2.2,53,0.00,,,0.00,WUHU216HW,2013-05-10 05:56:00,
2013-05-09 23:01:00,65.8,48.2,30.06,WNW,293,0.0,2.2,53,0.00,,,0.00,WUHU216HW,2013-05-10 06:01:00,
2013-05-09 23:06:00,65.6,48.5,30.07,West,270,0.0,0.0,54,0.00,,,0.00,WUHU216HW,2013-05-10 06:06:00,
2013-05-09 23:11:00,65.1,47.9,30.07,SW,225,0.0,0.0,54,0.00,,,0.00,WUHU216HW,2013-05-10 06:11:00,
2013-05-09 23:16:00,65.1,48.4,30.07,NNW,338,0.0,0.0,55,0.00,,,0.00,WUHU216HW,2013-05-10 06:16:00,
2013-05-09 23:21:00,64.7,48.1,30.07,NNW,338,0.0,0.0,55,0.00,,,0.00,WUHU216HW,2013-05-10 06:21:00,
2013-05-09 23:26:00,64.7,48.1,30.07,West,270,0.0,0.0,55,0.00,,,0.00,WUHU216HW,2013-05-10 06:26:00,
2013-05-09 23:31:00,64.5,48.4,30.07,North,0,0.0,0.0,56,0.00,,,0.00,WUHU216HW,2013-05-10 06:31:00,
2013-05-09 23:36:00,64.5,48.4,30.07,North,0,0.0,0.0,56,0.00,,,0.00,WUHU216HW,2013-05-10 06:36:00,
2013-05-09 23:41:00,64.0,47.9,30.08,NNW,338,0.0,0.0,56,0.00,,,0.00,WUHU216HW,2013-05-10 06:41:00,
2013-05-09 23:46:00,63.8,47.7,30.08,NNW,338,5.3,5.3,57,0.00,,,0.00,WUHU216HW,2013-05-10 06:46:00,
2013-05-09 23:51:00,63.8,48.2,30.08,NNW,338,0.0,5.3,57,0.00,,,0.00,WUHU216HW,2013-05-10 06:51:00,
2013-05-09 23:56:00,63.5,47.9,30.08,NW,315,0.0,5.3,57,0.00,,,0.00,WUHU216HW,2013-05-10 06:56:00,